STARLINK-2226, 48010

Orbit data source: Space-Track

STARLINK-2226, 48010 is a payload satellite owned by SpaceX/Seattle (US) in LEO that was launched on Wed, 24 Mar 2021 UTC via an FALCON 9 launch vehicle from the Air Force Eastern Test Range (AFETR). Payload-class satellites include a variety of spacecraft equipped with specific instruments for various scientific and technological missions. These include communications satellites like Starlink; space stations such as the ISS; scientific satellites like the Hubble; Earth observation satellites from companies like Planet Labs, Umbra, and HawkEye 360; GPS; miniature CubeSats for education and research; and military/defense satellites.

Loading next visibility...
Identifier
48010, 2021-024AK
Orbit
LEO
Country
Flag of USUS
Related business
Manufacturer
SpaceX/Seattle
Mission
Operational Commercial Communications
Bus & Motor
STARLINK, Unknown motor
Mass
260 kg wet, ~248 kg dry
Launch date (UTC)
2021-03-24 (5 years ago)
Launch vehicle
FALCON 9
Launch site
Air Force Eastern Test Range (AFETR)
Object type
Payload
Rocket body
Debris
Shape & HBR
Box + 1 Pan, 10.1 m
Radar Cross Section
13.562 m², Large (>1 m²)

Expand to show TLE details & history
Last TLE update: 15 hours ago

TLE from 15 hours ago
0 STARLINK-2226
1 48010U 21024AK  25346.77297060  .00013352  00000-0  91279-3 0  9995
2 48010  53.0562   6.8018 0001007 103.9714 256.1387 15.06431200261409
Epoch: 2025-12-12T18:33Z
TLE epoch observation values (Epoch: 2025-12-12T18:33:04.659Z)
Latitude
-0.00004°
Longitude
6.82257°
Altitude
548.162 km
Speed
7.589 km/s
True Right ascension
00h 27m 12s
True Declination
0° 00' 00"
Sunlit
Object was in daylight at epoch
Visualization orbit readout
Latitude
Unknown
Longitude
Unknown
Altitude
Unknown
Speed
Unknown
Apparent Right ascension
Unknown
Apparent Declination
Unknown
Sunlit
N/A
Visualization observer readout
Local Sidereal Time
07:33:25
Azimuth
Unknown
Elevation
Unknown
Doppler factor
Unknown
Orbital elements
Apogee altitude
548.084 km
Perigee altitude
546.689 km
Semi-major axis
6,925.523 km
Eccentricity
0.0001
Inclination
53.0562°
RAAN
6.8018°
Arg. of periapsis
103.9714°
True anomaly
256.1275°
Mean anomaly
256.1387°
Eccentric anomaly
256.1331°
Mean motion
3.76586 °/min
Orbital period
95.6 mins
BSTAR
0.00091279
Loading maneuver chart data...
Computing Atmospheric mass density...

Documentation

Showing up to 5 results
|